Location: Unspecified
(0.0000°N, 0.0000°E)
Time: 23:07:01
(UTC+00:00)

Envisat - Visible Passes

Search period start: 21 October 2019 00:00
Search period end: 31 October 2019 00:00
Orbit: 764 x 766 km, 98.1° (Epoch: 21 October)

Date Brightness Start Highest point End Pass type
(mag) Time Alt. Az. Time Alt. Az. Time Alt. Az.
21 Oct 3.0 18:21:40 10° SSE 18:26:42 66° ENE 18:31:43 10° N visible
22 Oct 5.5 19:25:03 10° SSW 19:28:47 21° WSW 19:32:31 10° NW visible
23 Oct 3.6 18:47:08 10° S 18:52:08 59° WSW 18:57:07 10° NNW visible
24 Oct 3.2 18:10:36 10° SSE 18:15:28 47° ENE 18:20:19 10° N visible
25 Oct 5.1 19:13:16 10° SSW 19:17:33 28° WSW 19:21:51 10° NW visible
26 Oct 3.1 18:35:49 10° S 18:40:54 81° WSW 18:45:57 10° NNW visible
27 Oct 3.6 17:59:39 10° SE 18:04:14 35° ENE 18:08:48 10° NNE visible
27 Oct 6.1 19:40:35 10° SW 19:42:58 13° WSW 19:45:21 10° WNW visible
28 Oct 4.5 19:01:39 10° S 19:06:20 38° WSW 19:11:00 10° NW visible
29 Oct 2.9 18:24:35 10° SSE 18:29:40 74° ENE 18:34:43 10° N visible
30 Oct 5.7 19:28:18 10° SW 19:31:44 18° WSW 19:35:10 10° WNW visible
